Guthrie, OK

4:41 PM CDT on June 22, 2017 (GMT -0500)
Guthrie Municipal

Weather History for KGOK - December, 2012

Change the Weather History Date:

Tuesday, December 11, 2012

  Actual Average Record
Temperature  
Mean Temperature 36 °F -  
Max Temperature 50 °F 52 °F 72 °F (2015)
Min Temperature 21 °F 30 °F 6 °F (1966)
Degree Days  
Heating Degree Days 30    
Moisture  
Dew Point 12 °F    
Average Humidity 42    
Maximum Humidity 63    
Minimum Humidity 23    
Precipitation  
Precipitation 0.00 in - - ()
Sea Level Pressure  
Sea Level Pressure 30.15 in    
Wind  
Wind Speed 7 mph (SSW)    
Max Wind Speed 10 mph    
Max Gust Speed -    
Visibility 10 miles    
Events      
Averages and records for this station are not official NWS values.
T = Trace of Precipitation, MM = Missing Value Source: NWS Daily Summary

Daily Weather History Graph

Daily Weather History Graph

Search for Another Location

Airport or City:

Trip Planner

Search our weather history database for the weather conditions in past years. The results will help you decide how hot, cold, wet, or windy it might be!

Date:

Astronomy

Dec. 11, 2012 Rise Set
Actual Time 7:30 AM CST 5:16 PM CST
Civil Twilight 7:01 AM CST 5:44 PM CST
Nautical Twilight 6:29 AM CST 6:16 PM CST
Astronomical Twilight 5:58 AM CST 6:47 PM CST
Moon 5:28 AM CST (12/11) 3:55 PM CST (12/11)
Length of Visible Light 10h 43m
Length of Day
9h 46m
Waning Crescent, 4% of the Moon is Illuminated
Dec 11
Waning Crescent
Dec 13
New
Dec 19
First Quarter
Dec 28
Full
Jan 4
Last Quarter

Hourly Weather History & Observations

Time (CST) Temp. Windchill Dew Point Humidity Pressure Visibility Wind Dir Wind Speed Gust Speed Precip Events Conditions
12:53 AM 25.0 °F 16.3 °F 7.0 °F 46% 30.12 in 10.0 mi South 8.1 mph - N/A   Clear
1:53 AM 25.0 °F 17.1 °F 7.0 °F 46% 30.12 in 10.0 mi South 6.9 mph - N/A   Clear
2:53 AM 24.1 °F 16.0 °F 8.1 °F 51% 30.11 in 10.0 mi South 6.9 mph - N/A   Clear
3:53 AM 23.0 °F 15.8 °F 8.1 °F 53% 30.11 in 10.0 mi South 5.8 mph - N/A   Clear
4:53 AM 23.0 °F 18.4 °F 8.1 °F 53% 30.11 in 10.0 mi South 3.5 mph - N/A   Clear
5:53 AM 21.9 °F 14.5 °F 9.0 °F 58% 30.12 in 10.0 mi South 5.8 mph - N/A   Clear
6:53 AM 24.1 °F 18.2 °F 10.0 °F 55% 30.14 in 10.0 mi South 4.6 mph - N/A   Clear
7:53 AM 23.0 °F 17.0 °F 12.0 °F 63% 30.16 in 10.0 mi South 4.6 mph - N/A   Clear
8:53 AM 32.0 °F 25.6 °F 14.0 °F 48% 30.17 in 10.0 mi SSW 6.9 mph - N/A   Clear
9:53 AM 37.0 °F 31.0 °F 17.1 °F 44% 30.19 in 10.0 mi WSW 8.1 mph - N/A   Clear
10:53 AM 42.1 °F 36.6 °F 16.0 °F 35% 30.19 in 10.0 mi WSW 9.2 mph - N/A   Clear
11:53 AM 46.9 °F - 14.0 °F 27% 30.17 in 10.0 mi WSW 8.1 mph - N/A   Clear
12:53 PM 48.9 °F - 15.1 °F 26% 30.14 in 10.0 mi WSW 9.2 mph - N/A   Clear
1:53 PM 50.0 °F - 14.0 °F 24% 30.12 in 10.0 mi SSW 10.4 mph - N/A   Clear
2:53 PM 50.0 °F - 12.9 °F 23% 30.12 in 10.0 mi WSW 10.4 mph - N/A   Clear
3:53 PM 50.0 °F - 15.1 °F 25% 30.12 in 10.0 mi WSW 8.1 mph - N/A   Clear
4:53 PM 46.9 °F - 15.1 °F 28% 30.13 in 10.0 mi SSW 6.9 mph - N/A   Clear
6:53 PM 37.9 °F 34.4 °F 14.0 °F 38% 30.16 in 10.0 mi South 4.6 mph - N/A   Clear
7:53 PM 37.0 °F 33.3 °F 14.0 °F 39% 30.19 in 10.0 mi South 4.6 mph - N/A   Clear
8:53 PM 33.1 °F 26.9 °F 14.0 °F 46% 30.19 in 10.0 mi South 6.9 mph - N/A   Clear
9:53 PM 32.0 °F 25.6 °F 14.0 °F 48% 30.20 in 10.0 mi South 6.9 mph - N/A   Clear
10:53 PM 30.9 °F 26.2 °F 14.0 °F 50% 30.22 in 10.0 mi South 4.6 mph - N/A   Clear
11:53 PM 30.9 °F 25.2 °F 12.9 °F 47% 30.21 in 10.0 mi South 5.8 mph - N/A   Clear